Regional Weather Roundup
Issued by NWS

Home | Current Version | Previous Version | Graphics & Text | Print | Product List | Glossary On
Versions: 1 2 3 4 5 6 7 8 9 10 11 12 13 14 15 16 17 18 19 20 21 22 23 24 25 26 27 28 29 30 31 32 33 34 35 36 37 38 39 40 41 42 43 44 45 46 47 48 49 50
000
ASUS43 KOAX 250302
RWRNE

WEATHER ROUNDUP FOR NEBRASKA
NATIONAL WEATHER SERVICE OMAHA NE
1000 PM CDT THU JUL 24 2014

NOTES: SATELLITE DATA IS BEING USED TO AUGMENT CLOUD COVER ABOVE
       12000 FEET.
       "FAIR" INDICATES FEW OR NO CLOUDS BELOW 12,000 FEET WITH NO
       SIGNIFICANT WEATHER AND/OR OBSTRUCTIONS TO VISIBILITY.

  * THESE STATIONS DO NOT REPORT WEATHER SUCH AS RAIN...SNOW OR FOG.

NEZ001>004-019>022-054>056-250400-
NEBRASKA PANHANDLE

CITY           SKY/WX    TMP DP  RH WIND       PRES   REMARKS
SCOTTSBLUFF    CLEAR     77  58  51 SE8       29.88R
ALLIANCE       CLEAR     71  59  65 S10       29.87S
CHADRON        CLEAR     84  52  33 S16       29.76R
KIMBALL        PTCLDY    70  57  64 S7        29.99R
SIDNEY         PTCLDY    72  55  55 S7        29.95R
$$

NEZ057>060-069>072-079>082-250400-
SOUTHWEST NEBRASKA

CITY           SKY/WX    TMP DP  RH WIND       PRES   REMARKS
NORTH PLATTE   CLOUDY    85  52  32 VRB5      29.81F
IMPERIAL       CLOUDY    75  61  61 N9        29.88F
LEXINGTON      CLOUDY    85  72  65 SW10      29.85R HX  90
MCCOOK         CLOUDY    92  54  27 SW8       29.87R HX  90
OGALLALA       MOCLDY    75  56  51 CALM      29.86S
$$

NEZ005>010-023>029-035>040-094-250400-
NORTH CENTRAL NEBRASKA

CITY           SKY/WX    TMP DP  RH WIND       PRES   REMARKS
VALENTINE      PTCLDY    81  58  45 SE3       29.75R
AINSWORTH      CLOUDY    71  63  76 SE7       29.77F
BROKEN BOW     CLOUDY    84  72  67 NW5       29.86R
ORD            CLOUDY    80  68  66 SE17G28   29.81S THUNDER
$$

NEZ041-046>049-061>064-073>077-083>087-250400-
SOUTH CENTRAL NEBRASKA

CITY           SKY/WX    TMP DP  RH WIND       PRES   REMARKS
GRAND ISLAND   CLOUDY    80  68  66 SE18G25   29.83F
AURORA         CLOUDY    79  67  68 SE14G20   29.86S
HASTINGS       MOCLDY    83  65  54 S16G24    29.84F
HEBRON         MOCLDY    80  64  57 S10G21    29.89S
HOLDREGE       CLOUDY    85  69  58 S16G24    29.83S
KEARNEY *      MOCLDY    82  70  65 SE18      29.83F
YORK           PTCLDY    77  66  69 SE17      29.87F
$$

NEZ011>018-030>034-042>045-250400-
NORTHEAST NEBRASKA

CITY           SKY/WX    TMP DP  RH WIND       PRES   REMARKS
NORFOLK        PTCLDY    75  63  66 SE16      29.83F
ALBION         CLOUDY    77  63  61 S16G24    29.85S
BLAIR          CLEAR     73  59  59 SE16G23   29.90F
COLUMBUS *     PTCLDY    77  61  57 SE13G22   29.86F
FREMONT        CLEAR     76  61  59 SE16G23   29.89F
TEKAMAH        CLEAR     75  61  61 S22G30    29.87F
WAYNE          PTCLDY    74  63  69 S20       29.84F
$$

NEZ050>053-065>068-078-088>093-250400-
SOUTHEAST NEBRASKA

CITY           SKY/WX    TMP DP  RH WIND       PRES   REMARKS
LINCOLN        CLEAR     78  61  55 SE17G28   29.91F
OMAHA EPPLEY   PTCLDY    75  60  59 S22       29.91F
BEATRICE       PTCLDY    76  64  66 SE13      29.93S
FALLS CITY     CLEAR     73  62  68 SE10      29.97F
NEBRASKA CITY  CLEAR     72  60  67 S15G21    29.95F
PLATTSMOUTH    CLEAR     73  59  62 SE10G17   29.93F
$$

NEZ044-045-051>053-067-250400-
OMAHA AREA

CITY           SKY/WX    TMP DP  RH WIND       PRES   REMARKS
OMAHA EPPLEY   PTCLDY    75  60  59 S22       29.91F
BLAIR          CLEAR     73  59  59 SE16G23   29.90F
FREMONT        CLEAR     76  61  59 SE16G23   29.89F
MILLARD        CLEAR     75  62  63 SE18      29.91F
OFFUTT AFB     CLEAR     73  62  68 SE14      29.92F
PLATTSMOUTH    CLEAR     73  59  62 SE10G17   29.93F
WAHOO          FAIR      75  61  61 SE17      29.89F
$$



USA.gov is the U.S. government's official web portal to all federal, state and local government web resources and services.